Location: Arapaho Elementary School
(32.9607°N, 96.7625°W)
Time: 21:45:45
(UTC+00:00)

Cosmos 1500 Rocket - Pass Details

Date: 08 July 2022
Orbit: 602 x 631 km, 82.5° (Epoch: 13 August)

Event Time Altitude Azimuth Distance (km) Brightness Sun altitude
Exits shadow 09:18:02 44° 283° (WNW) 876 4.1 -21.9°
Drops below altitude 10° 09:22:13 10° 352° (N) 2,015 6.7 -21.3°
Sets 09:24:33 0° 359° (N) 2,928 7.7 -21.0°
